Weather History for Meriden, CT

Change the Weather History Date:

Wednesday, October 3, 2012

  Actual Average (KHVN) Record (KHVN)
Temperature  
Mean Temperature 65 °F -  
Max Temperature 70 °F 65 °F 78 °F (1983)
Min Temperature 60 °F 48 °F 36 °F (1974)
Growing Degree Days 15 (Base 50)    
Moisture  
Dew Point 62 °F    
Average Humidity 93    
Maximum Humidity 100    
Minimum Humidity 83    
Precipitation  
Precipitation 0.01 in - - ()
Sea Level Pressure  
Sea Level Pressure 30.07 in    
Wind  
Wind Speed 3 mph (North)    
Max Wind Speed 6 mph    
Max Gust Speed -    
Visibility 4 miles    
Events Rain    
Averages and records for this station are not official NWS values.
T = Trace of Precipitation, MM = Missing Value Source: NWS Daily Summary

Daily Weather History Graph

Daily Weather History Graph

Search for Another Location

Airport:

Trip Planner

Search our weather history database for the weather conditions in past years. The results will help you decide how hot, cold, wet, or windy it might be!

Date:

Astronomy

Oct. 03, 2012 Rise Set
Actual Time 6:50 AM EDT 6:28 PM EDT
Civil Twilight 6:23 AM EDT 6:56 PM EDT
Nautical Twilight 5:50 AM EDT 7:28 PM EDT
Astronomical Twilight 5:18 AM EDT 8:00 PM EDT
Moon 8:16 PM EDT (10/3) 10:14 AM EDT (10/3)
Length of Visible Light 12h 33m
Length of Day
11h 38m
Waning Gibbous, 89% of the Moon is Illuminated
Oct 3
Waning Gibbous
Oct 8
Last Quarter
Oct 15
New
Oct 21
First Quarter
Oct 29
Full

Hourly Weather History & Observations

Time (EDT) Temp. Dew Point Humidity Pressure Visibility Wind Dir Wind Speed Gust Speed Precip Events Conditions
12:53 AM 60.1 °F 59.0 °F 96% 30.02 in 3.0 mi North 4.6 mph - N/A   Overcast
1:20 AM 60.8 °F 57.2 °F 88% 30.02 in 2.5 mi North 4.6 mph - N/A   Overcast
1:53 AM 60.1 °F 57.9 °F 93% 30.02 in 2.0 mi North 3.5 mph - N/A   Overcast
2:42 AM 60.8 °F 59.0 °F 94% 30.02 in 1.5 mi North 3.5 mph - N/A   Overcast
2:53 AM 60.1 °F 59.0 °F 96% 30.02 in 1.5 mi North 5.8 mph - N/A   Overcast
3:17 AM 60.8 °F 59.0 °F 94% 30.02 in 2.0 mi North 4.6 mph - N/A   Overcast
3:53 AM 60.1 °F 59.0 °F 96% 30.02 in 2.0 mi North 4.6 mph - N/A   Overcast
4:28 AM 60.8 °F 59.0 °F 94% 30.02 in 3.0 mi North 4.6 mph - N/A   Overcast
4:51 AM 60.8 °F 59.0 °F 94% 30.03 in 2.5 mi North 3.5 mph - N/A   Overcast
4:53 AM 60.1 °F 59.0 °F 96% 30.03 in 2.5 mi NNW 4.6 mph - N/A   Overcast
5:02 AM 60.8 °F 59.0 °F 94% 30.03 in 3.0 mi North 3.5 mph - N/A   Overcast
5:40 AM 60.8 °F 59.0 °F 94% 30.04 in 2.5 mi North 4.6 mph - N/A   Overcast
5:53 AM 60.1 °F 59.0 °F 96% 30.04 in 2.5 mi North 4.6 mph - N/A   Overcast
6:00 AM 60.8 °F 59.0 °F 94% 30.04 in 4.0 mi NNE 5.8 mph - N/A   Overcast
6:21 AM 60.8 °F 59.0 °F 94% 30.05 in 2.5 mi North 3.5 mph - N/A   Overcast
6:53 AM 60.1 °F 59.0 °F 96% 30.05 in 2.0 mi Variable 3.5 mph - N/A   Overcast
7:11 AM 60.8 °F 59.0 °F 94% 30.06 in 1.5 mi Calm Calm - N/A   Overcast
7:34 AM 60.8 °F 59.0 °F 94% 30.06 in 2.0 mi NNE 4.6 mph - N/A   Overcast
7:51 AM 60.8 °F 59.0 °F 94% 30.07 in 3.0 mi North 5.8 mph - N/A   Overcast
7:53 AM 61.0 °F 59.0 °F 93% 30.07 in 2.5 mi North 4.6 mph - N/A   Overcast
8:09 AM 60.8 °F 60.8 °F 100% 30.08 in 4.0 mi North 4.6 mph - N/A   Overcast
8:53 AM 62.1 °F 60.1 °F 93% 30.08 in 6.0 mi NNE 3.5 mph - N/A   Overcast
9:53 AM 63.0 °F 61.0 °F 93% 30.09 in 7.0 mi North 3.5 mph - N/A   Overcast
10:53 AM 64.9 °F 62.1 °F 90% 30.09 in 10.0 mi Calm Calm - N/A   Overcast
11:53 AM 64.9 °F 62.1 °F 90% 30.09 in 8.0 mi NNW 3.5 mph - N/A   Overcast
12:40 PM 66.2 °F 62.6 °F 88% 30.07 in 7.0 mi Calm Calm - 0.01 in Rain Light Rain
12:53 PM 66.9 °F 64.0 °F 90% 30.07 in 8.0 mi Calm Calm - 0.01 in   Overcast
1:53 PM 68.0 °F 64.0 °F 87% 30.06 in 9.0 mi NNE 3.5 mph - N/A   Overcast
2:15 PM 69.8 °F 64.4 °F 83% 30.06 in 9.0 mi Calm Calm - N/A   Overcast
2:41 PM 69.8 °F 64.4 °F 83% 30.07 in 10.0 mi Calm Calm - N/A   Overcast
2:53 PM 69.1 °F 64.0 °F 84% 30.06 in 10.0 mi Calm Calm - N/A   Overcast
3:53 PM 70.0 °F 64.9 °F 84% 30.06 in 10.0 mi Calm Calm - N/A   Overcast
4:53 PM 70.0 °F 64.9 °F 84% 30.07 in 10.0 mi Calm Calm - N/A   Overcast
5:53 PM 69.1 °F 64.9 °F 87% 30.08 in 4.0 mi Calm Calm - N/A   Overcast
6:18 PM 68.0 °F 66.2 °F 94% 30.09 in 2.5 mi Calm Calm - N/A   Overcast
6:32 PM 68.0 °F 66.2 °F 94% 30.09 in 3.0 mi Calm Calm - N/A   Overcast
6:41 PM 68.0 °F 66.2 °F 94% 30.09 in 6.0 mi NNW 3.5 mph - N/A   Overcast
6:53 PM 68.0 °F 66.0 °F 93% 30.09 in 6.0 mi Calm Calm - N/A   Overcast
7:53 PM 66.9 °F 64.9 °F 93% 30.09 in 4.0 mi Calm Calm - N/A   Overcast
8:07 PM 66.2 °F 64.4 °F 94% 30.10 in 2.5 mi Calm Calm - N/A   Overcast
8:45 PM 66.2 °F 66.2 °F 100% 30.12 in 1.8 mi Calm Calm - N/A   Overcast
8:53 PM 66.9 °F 66.0 °F 97% 30.11 in 1.8 mi Calm Calm - N/A   Overcast
9:15 PM 66.2 °F 64.4 °F 94% 30.12 in 2.0 mi North 3.5 mph - N/A   Overcast
9:37 PM 66.2 °F 64.4 °F 94% 30.12 in 3.0 mi Calm Calm - N/A   Overcast
9:45 PM 66.2 °F 64.4 °F 94% 30.12 in 2.5 mi Calm Calm - N/A   Overcast
9:53 PM 66.9 °F 64.9 °F 93% 30.12 in 2.0 mi Calm Calm - N/A   Overcast
10:23 PM 66.2 °F 64.4 °F 94% 30.13 in 1.8 mi NNW 3.5 mph - N/A   Overcast
10:53 PM 66.0 °F 64.9 °F 96% 30.12 in 1.8 mi Calm Calm - N/A   Overcast
11:02 PM 66.2 °F 64.4 °F 94% 30.13 in 2.0 mi Calm Calm - N/A   Overcast
11:25 PM 66.2 °F 64.4 °F 94% 30.13 in 1.5 mi Calm Calm - N/A   Overcast
11:53 PM 66.0 °F 64.9 °F 96% 30.13 in 2.5 mi Calm Calm - N/A   Overcast